Regional Weather Roundup
Issued by NWS

Home | Current Version | Previous Version | Graphics & Text | Print | Product List | Glossary On
Versions: 1 2 3 4 5 6 7 8 9 10 11 12 13 14 15 16 17 18 19 20 21 22 23 24 25 26 27 28 29 30 31 32 33 34 35 36 37 38 39 40 41 42 43 44 45 46 47 48 49 50
000
ASUS43 KOAX 241402
RWRNE

WEATHER ROUNDUP FOR NEBRASKA
NATIONAL WEATHER SERVICE OMAHA NE
900 AM CDT SAT SEP 24 2016

NOTES: SATELLITE DATA IS BEING USED TO AUGMENT CLOUD COVER ABOVE
       12000 FEET.
       "FAIR" INDICATES FEW OR NO CLOUDS BELOW 12,000 FEET WITH NO
       SIGNIFICANT WEATHER AND/OR OBSTRUCTIONS TO VISIBILITY.

  * THESE STATIONS DO NOT REPORT WEATHER SUCH AS RAIN...SNOW OR FOG.

NEZ001>004-019>022-054>056-241500-
NEBRASKA PANHANDLE

CITY           SKY/WX    TMP DP  RH WIND       PRES   REMARKS
SCOTTSBLUFF    SUNNY     47  45  93 NW6       29.92F
ALLIANCE       SUNNY     47  41  80 W6        29.92R
CHADRON        SUNNY     50  43  77 SW12      29.89R
SIDNEY         MOSUNNY   44  40  85 SW3       29.98R
$$

NEZ057>060-069>072-079>082-241500-
SOUTHWEST NEBRASKA

CITY           SKY/WX    TMP DP  RH WIND       PRES   REMARKS
NORTH PLATTE   CLOUDY    56  47  71 NW6       29.94R
IMPERIAL       MOSUNNY   51  42  71 W7        29.98R
LEXINGTON      MOSUNNY   58  49  72 NW9       29.92R
MCCOOK         CLOUDY    54  47  77 W5        29.96R
OGALLALA       SUNNY     52  44  74 W6        29.95R
$$

NEZ005>010-023>029-035>040-094-241500-
NORTH CENTRAL NEBRASKA

CITY           SKY/WX    TMP DP  RH WIND       PRES   REMARKS
VALENTINE      CLOUDY    57  44  62 W12       29.87R
AINSWORTH      CLOUDY    59  49  68 W15G21    29.88R
BROKEN BOW     CLOUDY    60  54  80 NW9       29.89R
O`NEILL        CLOUDY    71  66  84 SE15      29.87R
ORD            CLOUDY    70  65  84 SE12      29.86R
THEDFORD       MOSUNNY   55  48  79 W5        29.91S
$$

NEZ041-046>049-061>064-073>077-083>087-241500-
SOUTH CENTRAL NEBRASKA

CITY           SKY/WX    TMP DP  RH WIND       PRES   REMARKS
GRAND ISLAND   CLOUDY    69  67  93 S14       29.89R
AURORA         LGT RAIN  69  69  97 S13       29.90F
HASTINGS       LGT RAIN  69  67  93 S10       29.90F FOG
HEBRON         CLOUDY    74  67  79 S13G18    29.93S
HOLDREGE       MOSUNNY   64  55  72 SW8       29.92R
KEARNEY *      MOSUNNY   68  61  77 S14       29.89R
YORK           PTSUNNY   70  68  94 S9        29.92F
$$

NEZ011>018-030>034-042>045-241500-
NORTHEAST NEBRASKA

CITY           SKY/WX    TMP DP  RH WIND       PRES   REMARKS
NORFOLK        LGT RAIN  70  65  84 SE15      29.90S
ALBION         CLOUDY    69  66  90 SE13G18   29.90R
BLAIR          MOSUNNY   75  66  75 SE10      29.96S
FREMONT        SUNNY     74  65  72 SE12G18   29.94R
TEKAMAH        MOSUNNY   73  65  75 SE13      29.95R
WAYNE          CLOUDY    73  67  80 S14       29.94R
$$

NEZ050>053-065>068-078-088>093-241500-
SOUTHEAST NEBRASKA

CITY           SKY/WX    TMP DP  RH WIND       PRES   REMARKS
LINCOLN        MOSUNNY   76  67  73 SE16      29.94R
OMAHA EPPLEY   PTSUNNY   74  65  73 SE13      29.96S
BEATRICE       MOSUNNY   75  68  79 SE12G17   29.94F
FALLS CITY     CLOUDY    75  68  78 S10       29.99R
NEBRASKA CITY  CLOUDY    73  61  65 S12       29.99R
PLATTSMOUTH    CLOUDY    72  63  73 SE12      29.98R
$$

NEZ044-045-051>053-067-241500-
OMAHA AREA

CITY           SKY/WX    TMP DP  RH WIND       PRES   REMARKS
OMAHA EPPLEY   PTSUNNY   74  65  73 SE13      29.96S
BLAIR          MOSUNNY   75  66  75 SE10      29.96S
FREMONT        SUNNY     74  65  72 SE12G18   29.94R
MILLARD        CLOUDY    74  67  79 SE8       29.96R
OFFUTT AFB     SUNNY     73  67  80 SE10      29.96R
PLATTSMOUTH    CLOUDY    72  63  73 SE12      29.98R
WAHOO          FAIR      74  65  75 SE13      29.94S
$$




USA.gov is the U.S. government's official web portal to all federal, state and local government web resources and services.